WX4SKY Weather Reports


Display with metric or nautical units.
time (UTC)temp
F
wind
direction
speed
MPH
gust
MPH
rain 1hr
in
rain 24hr
in
rain mn
in
humidity
%
barometer
mb
20260505130112 53 0 0.0 0.0 0.00 0.00 0.00 93 1016.5
20260505124559 52 0 0.0 0.0 0.00 0.00 0.00 93 1016.2
20260505123106 50 0 0.0 0.0 0.00 0.00 0.00 93 1016.3
20260505121553 49 0 0.0 0.0 0.00 0.00 0.00 93 1016.2
20260505120108 48 0 0.0 0.0 0.00 0.00 0.00 93 1016.2
20260505114556 48 0 0.0 0.0 0.00 0.00 0.00 93 1016.2
20260505113104 47 0 0.0 0.0 0.00 0.00 0.00 93 1015.9
20260505111555 47 0 0.0 0.0 0.00 0.00 0.00 93 1015.8
20260505110111 47 0 0.0 1.0 0.00 0.00 0.00 93 1015.7
20260505101550 47 0 0.0 0.0 0.00 0.00 0.00 92 1015.8
20260505100057 47 0 0.0 0.0 0.00 0.00 0.00 92 1015.8
20260505094555 47 0 0.0 0.0 0.00 0.00 0.00 91 1016.0
20260505093108 48 0 0.0 0.0 0.00 0.00 0.00 91 1016.0
20260505091553 48 0 0.0 0.0 0.00 0.00 0.00 91 1016.1
20260505090056 48 0 0.0 0.0 0.00 0.00 0.00 91 1016.2
20260505084555 48 0 0.0 0.0 0.00 0.00 0.00 91 1016.4
20260505083059 48 0 0.0 0.0 0.00 0.00 0.00 91 1016.4
20260505081603 49 0 0.0 0.0 0.00 0.00 0.00 91 1016.2
20260505080104 49 0 0.0 0.0 0.00 0.00 0.00 91 1016.1
20260505074555 49 0 0.0 0.0 0.00 0.00 0.00 91 1016.1
20260505073059 49 0 0.0 0.0 0.00 0.00 0.00 90 1016.1
20260505071623 49 0 0.0 0.0 0.00 0.00 0.00 90 1016.3
20260505070105 49 0 0.0 0.0 0.00 0.00 0.00 89 1016.0
20260505064559 49 0 0.0 0.0 0.00 0.00 0.00 89 1016.0
20260505063054 50 0 0.0 0.0 0.00 0.00 0.00 89 1016.0
20260505061558 50 0 0.0 0.0 0.00 0.00 0.00 89 1016.0
20260505060059 51 0 0.0 0.0 0.00 0.00 0.00 89 1016.2
20260505054559 51 0 0.0 1.0 0.00 0.00 0.00 89 1016.1
20260505053103 51 0 0.0 0.0 0.00 0.00 0.00 88 1016.4
20260505051553 52 0 0.0 0.0 0.00 0.00 0.00 87 1016.3
20260505041555 54 0 0.0 1.0 0.00 0.00 0.00 85 1016.1
20260505040053 54 0 0.0 0.0 0.00 0.00 0.00 82 1016.2
20260505034555 54 0 0.0 0.0 0.00 0.00 0.00 84 1016.3
20260505033055 55 0 0.0 1.0 0.00 0.00 0.00 81 1016.5
20260505031558 55 0 0.0 0.0 0.00 0.00 0.00 81 1016.4
20260505030104 56 0 0.0 0.0 0.00 0.00 0.00 80 1016.3
20260505024555 57 0 0.0 0.0 0.00 0.00 0.00 77 1016.4
20260505023102 57 0 0.0 0.0 0.00 0.00 0.00 73 1016.4
20260505021557 58 0 0.0 0.0 0.00 0.00 0.00 71 1016.2
20260505020056 59 0 0.0 0.0 0.00 0.00 0.00 70 1016.1
20260505014553 59 0 0.0 0.0 0.00 0.00 0.00 67 1016.0
20260505013055 61 0 0.0 0.0 0.00 0.00 0.00 65 1016.0
20260505011556 62 0 0.0 0.0 0.00 0.00 0.00 61 1015.9
20260505010104 63 0 0.0 0.0 0.00 0.00 0.00 61 1015.8
20260505004555 64 0 0.0 0.0 0.00 0.00 0.00 60 1015.7
20260505003057 66 0 0.0 0.0 0.00 0.00 0.00 58 1015.7
20260505001554 68 0 0.0 0.0 0.00 0.00 0.00 55 1015.5
20260505000112 69 0 0.0 0.0 0.00 0.00 0.00 53 1015.5
20260504234554 70 0 0.0 0.0 0.00 0.00 0.00 50 1015.5
20260504233054 71 0 0.0 0.0 0.00 0.00 0.00 48 1015.5
20260504231555 73 0 0.0 1.0 0.00 0.00 0.00 46 1015.5
20260504230056 74 0 0.0 1.0 0.00 0.00 0.00 45 1015.6
20260504224559 76 281 0.0 3.0 0.00 0.00 0.00 40 1015.5
20260504223058 78 0 0.0 2.0 0.00 0.00 0.00 37 1015.6
20260504221556 80 139 0.0 3.0 0.00 0.00 0.00 35 1015.6
20260504220112 81 51 0.0 2.0 0.00 0.00 0.00 37 1015.6
20260504214558 80 21 0.0 3.0 0.00 0.00 0.00 37 1015.5
20260504213100 79 0 0.0 2.0 0.00 0.00 0.00 39 1015.5
20260504211557 78 0 1.0 3.0 0.00 0.00 0.00 35 1015.6
20260504210058 81 89 0.0 5.0 0.00 0.00 0.00 33 1015.6
20260504204556 80 302 1.0 3.0 0.00 0.00 0.00 32 1015.8
20260504203055 80 226 2.0 5.0 0.00 0.00 0.00 36 1015.9
20260504201554 79 115 1.0 4.0 0.00 0.00 0.00 36 1016.1
20260504200056 81 354 1.0 5.0 0.00 0.00 0.00 35 1016.0
20260504194552 80 0 0.0 4.0 0.00 0.00 0.00 38 1016.3
20260504193055 78 160 1.0 4.0 0.00 0.00 0.00 36 1016.5
20260504191557 78 299 2.0 5.0 0.00 0.00 0.00 40 1016.9
20260504190108 77 104 1.0 6.0 0.00 0.00 0.00 36 1017.1
20260504184611 77 101 1.0 7.0 0.00 0.00 0.00 41 1017.3
20260504183059 78 342 1.0 4.0 0.00 0.00 0.00 36 1017.4
20260504181556 76 0 1.0 6.0 0.00 0.00 0.00 42 1017.5
20260504180053 77 53 1.0 4.0 0.00 0.00 0.00 38 1017.7
20260504174552 76 307 0.0 5.0 0.00 0.00 0.00 38 1017.8
20260504173103 76 0 0.0 3.0 0.00 0.00 0.00 35 1018.0
20260504171556 75 118 2.0 4.0 0.00 0.00 0.00 38 1018.1